Location: Airlie Beach - Cannonvale QLD, Australia
(20.2768°S, 148.7558°E)
Time: 00:40:45
(UTC+10:00)

Hubble Space Telescope - Pass Details

Date: 26 May 2026
Orbit: 473 x 475 km, 28.5° (Epoch: 5 June)

Event Time Altitude Azimuth Distance (km) Brightness Sun altitude
Rises 18:22:58 0° 243° (WSW) 2,516 4.9 -11.8°
Reaches altitude 10° 18:25:22 10° 231° (SW) 1,638 3.7 -12.4°
Maximum altitude 18:28:40 28° 170° (S) 910 1.7 -13.1°
Enters shadow 18:30:13 21° 130° (SE) 1,111 1.8 -13.4°
